Regional Weather Roundup
Issued by NWS Sioux Falls, SD

Home | Current Version | Previous Version | Text Only | Print | Product List | Glossary Off
Versions: 1 2 3 4 5 6 7 8 9 10 11 12 13 14 15 16 17 18 19 20 21 22 23 24 25 26 27 28 29 30 31 32 33 34 35 36 37 38 39 40 41 42 43 44 45 46 47 48 49 50

000
ASUS43 KFSD 210010
RWRFSD

WEATHER ROUNDUP FOR SE SOUTH DAKOTA/SW MINNESOTA/NW IOWA
NATIONAL WEATHER SERVICE SIOUX FALLS SD
700 PM CDT MON APR 20 2015

NOTE: "FAIR" INDICATES FEW OR NO CLOUDS BELOW 12,000 FEET WITH NO
SIGNIFICANT WEATHER AND OR OBSTRUCTIONS TO VISIBILITY.


SDZ038>040-050-052>070-210100-
SOUTHEAST SOUTH DAKOTA

CITY           SKY/WX    TMP DP  RH WIND       PRES   REMARKS
BROOKINGS      MOSUNNY   46  25  42 NW25G35   29.66S
CHAMBERLAIN    SUNNY     52   4  14 N26       29.76S
6HR MIN TEMP:  52; 6HR MAX TEMP:  55;

HURON          SUNNY     52   4  14 N29       29.70R
6HR MIN TEMP:  49; 6HR MAX TEMP:  55;

MADISON        FAIR      48  19  32 NW28G33   29.67S
MITCHELL       SUNNY     54   1  11 NW30G43   29.72S
6HR MIN TEMP:  53; 6HR MAX TEMP:  57;

SIOUX FALLS    MOSUNNY   51  18  27 NW25G37   29.67R
6HR MIN TEMP:  50; 6HR MAX TEMP:  54;

WINNER         CLOUDY    55  13  18 NW25G33   29.78S
YANKTON        SUNNY     54   7  15 NW29G36   29.72S
$$

MNZ071-072-080-081-089-090-097-098-210100-
SOUTHWEST MINNESOTA

CITY           SKY/WX    TMP DP  RH WIND       PRES   REMARKS
FAIRMONT       CLOUDY    43  25  49 NW17G25   29.63S
JACKSON        MOSUNNY   43  27  52 NW28G35   29.66R
LUVERNE        MOSUNNY   50  21  32 NW26G35   29.67R
MARSHALL       CLOUDY    43  25  49 NW18G25   29.64S
6HR MIN TEMP:  37; 6HR MAX TEMP:  45;

MONTEVIDEO     CLOUDY    43  32  65 N20G28    29.64R
PIPESTONE      SUNNY     46  23  39 NW24G36   29.65S
REDWOOD FALLS  CLOUDY    42  30  62 NW20      29.62R
TRACY          CLOUDY    44  28  54 NW17G26   29.65F
WORTHINGTON    PTSUNNY   46  25  42 NW26G33   29.66R
$$

IAZ001>003-012>014-020>022-031-032-NEZ013-014-SDZ071-210100-
NORTHWEST IOWA

CITY           SKY/WX    TMP DP  RH WIND       PRES   REMARKS
CHEROKEE       SUNNY     52  12  20 NW22G30   29.68S
DENISON        SUNNY     54   9  16 NW23G32   29.69S
ESTHERVILLE    MOSUNNY   45  28  51 NW23G30   29.65R
LE MARS        SUNNY     54   5  14 NW29G37   29.71R
ORANGE CITY    SUNNY     50  12  22 NW25G33   29.68R
SHELDON        PTSUNNY   50  23  34 NW30G40   29.65R
SIOUX CITY     SUNNY     55   9  16 NW26G38   29.70R
6HR MIN TEMP:  53; 6HR MAX TEMP:  58; 6HR PCP: TRACE;

SPENCER        PTSUNNY   51  23  33 NW24G35   29.65S
6HR MIN TEMP:  49; 6HR MAX TEMP:  54;

STORM LAKE     SUNNY     50  12  22 NW24G38   29.68R
$$

ABBREVIATIONS USED IN REMARKS
   TC - TEMPERATURE IN CELSIUS
  WCI - WIND CHILL INDEX
   HX - HEAT INDEX
  VSB - VISIBILITY



USA.gov is the U.S. government's official web portal to all federal, state and local government web resources and services.